TimeAKST,TemperatureF,Dew PointF,Humidity,Sea Level PressureIn,VisibilityMPH,Wind Direction,Wind SpeedMPH,Gust SpeedMPH,PrecipitationIn,Events,Conditions,WindDirDegrees,DateUTC
12:53 AM,-9.9,-15.0,78,29.93,10.0,Calm,Calm,-,N/A,,Clear,0,2012-12-07 09:53:00
1:53 AM,-9.9,-15.0,78,29.94,10.0,Calm,Calm,-,N/A,,Clear,0,2012-12-07 10:53:00
3:53 AM,-11.0,-16.1,78,29.94,10.0,Calm,Calm,-,N/A,,Clear,0,2012-12-07 12:53:00
4:53 AM,-11.9,-17.0,78,29.94,10.0,Calm,Calm,-,N/A,,Clear,0,2012-12-07 13:53:00
5:53 AM,-11.9,-17.0,78,29.94,10.0,Calm,Calm,-,N/A,,Clear,0,2012-12-07 14:53:00
6:53 AM,-11.9,-18.0,74,29.94,10.0,ENE,3.5,-,N/A,,Clear,70,2012-12-07 15:53:00
7:53 AM,-13.0,-18.9,75,29.94,10.0,ENE,3.5,-,N/A,,Clear,60,2012-12-07 16:53:00
8:53 AM,-11.9,-18.0,74,29.95,10.0,ENE,3.5,-,N/A,,Clear,70,2012-12-07 17:53:00
9:53 AM,-11.9,-17.0,78,29.96,10.0,ENE,3.5,-,N/A,,Clear,60,2012-12-07 18:53:00
10:53 AM,-11.9,-17.0,78,29.96,10.0,ENE,3.5,-,N/A,,Clear,60,2012-12-07 19:53:00
11:53 AM,1.9,-9.0,60,29.96,10.0,NNW,4.6,-,N/A,,Clear,340,2012-12-07 20:53:00
12:53 PM,6.1,-8.0,53,29.96,10.0,North,6.9,-,N/A,,Clear,360,2012-12-07 21:53:00
1:53 PM,7.0,-7.1,53,29.95,10.0,North,5.8,-,N/A,,Clear,360,2012-12-07 22:53:00
2:53 PM,8.1,-7.1,50,29.95,10.0,North,3.5,-,N/A,,Clear,350,2012-12-07 23:53:00
3:53 PM,7.0,-7.1,53,29.94,10.0,North,8.1,-,N/A,,Clear,10,2012-12-08 00:53:00
4:53 PM,7.0,-7.1,53,29.94,10.0,North,8.1,-,N/A,,Clear,360,2012-12-08 01:53:00
5:53 PM,6.1,-7.1,55,29.95,10.0,North,6.9,-,N/A,,Clear,360,2012-12-08 02:53:00
6:53 PM,7.0,-7.1,53,29.95,10.0,North,8.1,16.1,N/A,,Clear,10,2012-12-08 03:53:00
7:53 PM,7.0,-8.0,51,29.96,10.0,North,10.4,-,N/A,,Clear,10,2012-12-08 04:53:00
8:53 PM,7.0,-8.0,51,29.96,10.0,NNE,10.4,-,N/A,,Clear,20,2012-12-08 05:53:00
9:53 PM,8.1,-8.0,48,29.97,10.0,NNE,13.8,-,N/A,,Clear,20,2012-12-08 06:53:00
10:53 PM,8.1,-8.0,48,29.98,10.0,NNE,8.1,-,N/A,,Clear,30,2012-12-08 07:53:00
11:53 PM,8.1,-8.0,48,29.98,10.0,NNE,9.2,17.3,N/A,,Clear,20,2012-12-08 08:53:00